Torna al catalogo

SCOUT A DEB

AttivoPO
NORAD 2353·DEBRIS·🇺🇸 United States

Lanciato Mar 26, 1966 da Vandenberg Space Force Base

Loading…

Prossimi Passaggi (prossime 24 ore)

TLE

AggiornatoSource: Space-Track

Epoca: Sep 14, 2026, 06:39 UTC

1 02353U 66024C   26257.27725016  .00000213  00000-0  18466-3 0  9997
2 02353  89.4056   8.1620 0152348 160.1658 200.5522 13.77564337 27263

Traccia SCOUT A DEB in tempo reale con AllMySat

Download on the App Store